Retour au catalogue

STARLINK-30114

ActifCommunicationsVLEO
NORAD 56826·PAYLOAD·🇺🇸 United States

Lancé Jun 4, 2023 depuis Cape Canaveral Space Force Station

Loading…

Prochains Passages (prochaines 24 heures)

TLE

FraisSource: CelesTrak SupGP

Époque: Sep 15, 2026, 01:50 UTC

1 56826C 23079D   26258.07687500  .00056263  00000+0  20381-2 0  2589
2 56826  42.9999 117.4360 0001428 274.9578 351.7683 15.27546746    11

Suivez STARLINK-30114 en temps réel avec AllMySat

Download on the App Store